Time,TemperatureF,DewpointF,PressureIn,WindDirection,WindDirectionDegrees,WindSpeedMPH,WindSpeedGustMPH,Humidity,HourlyPrecipIn,Conditions,Clouds,dailyrainin,SoftwareType,DateUTC
2013-03-27 00:00:00,29.5,32.0,28.56,NW,312,0.0,0.0,20,0.00,,,-99.99,wx200d/1.3,2013-03-27 04:00:00,
2013-03-27 00:04:00,29.5,32.0,28.56,NW,313,0.0,0.0,20,0.00,,,-99.99,wx200d/1.3,2013-03-27 04:04:00,
2013-03-27 00:06:00,29.5,32.0,28.56,NW,313,0.0,0.0,20,0.00,,,-99.99,wx200d/1.3,2013-03-27 04:06:00,
2013-03-27 00:12:00,29.5,32.0,28.56,NNW,332,0.0,0.0,20,0.00,,,-99.99,wx200d/1.3,2013-03-27 04:12:00,
2013-03-27 00:18:00,29.5,32.0,28.56,NNW,333,0.0,0.0,20,0.00,,,-99.99,wx200d/1.3,2013-03-27 04:18:00,
2013-03-27 00:24:00,29.3,32.0,28.56,NW,320,0.0,0.0,20,0.00,,,-99.99,wx200d/1.3,2013-03-27 04:24:00,
2013-03-27 00:30:00,29.5,32.0,28.56,NW,308,0.0,0.0,20,0.00,,,-99.99,wx200d/1.3,2013-03-27 04:30:00,
2013-03-27 00:36:00,29.5,32.0,28.56,NW,312,0.0,0.0,20,0.00,,,-99.99,wx200d/1.3,2013-03-27 04:36:00,
2013-03-27 00:42:00,29.7,32.0,28.56,NW,320,0.0,0.0,20,0.00,,,-99.99,wx200d/1.3,2013-03-27 04:42:00,
2013-03-27 00:48:00,29.7,32.0,28.56,NW,325,0.0,0.0,20,0.00,,,-99.99,wx200d/1.3,2013-03-27 04:48:00,
2013-03-27 00:54:00,29.7,32.0,28.56,North,353,0.0,0.0,20,0.00,,,-99.99,wx200d/1.3,2013-03-27 04:54:00,
2013-03-27 01:00:00,29.5,32.0,28.56,North,353,0.0,0.0,20,0.00,,,-99.99,wx200d/1.3,2013-03-27 05:00:00,
2013-03-27 01:06:00,29.5,32.0,28.56,North,353,0.0,0.0,20,0.00,,,-99.99,wx200d/1.3,2013-03-27 05:06:00,
2013-03-27 01:12:00,29.3,32.0,28.56,North,353,0.0,0.0,20,0.00,,,-99.99,wx200d/1.3,2013-03-27 05:12:00,
2013-03-27 01:18:00,29.3,32.0,28.53,NNW,345,0.0,0.0,20,0.00,,,-99.99,wx200d/1.3,2013-03-27 05:18:00,
2013-03-27 01:24:00,29.1,32.0,28.53,NNW,345,0.0,0.0,20,0.00,,,-99.99,wx200d/1.3,2013-03-27 05:24:00,
2013-03-27 01:30:00,29.3,32.0,28.53,NW,324,0.0,0.0,20,0.00,,,-99.99,wx200d/1.3,2013-03-27 05:30:00,
2013-03-27 01:36:00,29.5,32.0,28.53,NW,322,0.0,0.0,20,0.00,,,-99.99,wx200d/1.3,2013-03-27 05:36:00,
2013-03-27 01:42:00,29.5,32.0,28.53,WNW,284,0.0,2.2,20,0.00,,,-99.99,wx200d/1.3,2013-03-27 05:42:00,
2013-03-27 01:48:00,29.5,32.0,28.53,NNW,348,0.0,2.7,20,0.00,,,-99.99,wx200d/1.3,2013-03-27 05:48:00,
2013-03-27 01:54:00,29.7,32.0,28.53,NNW,334,0.0,0.0,20,0.00,,,-99.99,wx200d/1.3,2013-03-27 05:54:00,
2013-03-27 02:00:00,29.5,32.0,28.53,NNW,336,0.0,0.0,20,0.00,,,-99.99,wx200d/1.3,2013-03-27 06:00:00,
2013-03-27 02:06:00,29.1,32.0,28.53,North,7,0.0,0.0,20,0.00,,,-99.99,wx200d/1.3,2013-03-27 06:06:00,
2013-03-27 02:12:00,29.1,32.0,28.53,North,357,0.0,0.0,20,0.00,,,-99.99,wx200d/1.3,2013-03-27 06:12:00,
2013-03-27 02:18:00,28.9,32.0,28.53,North,357,0.0,0.0,20,0.00,,,-99.99,wx200d/1.3,2013-03-27 06:18:00,
2013-03-27 02:24:00,28.6,32.0,28.53,North,357,0.0,0.0,20,0.00,,,-99.99,wx200d/1.3,2013-03-27 06:24:00,
2013-03-27 02:30:00,28.4,32.0,28.53,North,357,0.0,0.0,21,0.00,,,-99.99,wx200d/1.3,2013-03-27 06:30:00,
2013-03-27 02:36:00,28.2,32.0,28.53,North,357,0.0,0.0,21,0.00,,,-99.99,wx200d/1.3,2013-03-27 06:36:00,
2013-03-27 02:42:00,28.2,32.0,28.53,North,357,0.0,0.0,21,0.00,,,-99.99,wx200d/1.3,2013-03-27 06:42:00,
2013-03-27 02:48:00,28.0,32.0,28.53,North,357,0.0,0.0,21,0.00,,,-99.99,wx200d/1.3,2013-03-27 06:48:00,
2013-03-27 02:54:00,27.9,32.0,28.53,North,357,0.0,0.0,21,0.00,,,-99.99,wx200d/1.3,2013-03-27 06:54:00,
2013-03-27 03:00:00,27.9,32.0,28.53,North,357,0.0,0.0,21,0.00,,,-99.99,wx200d/1.3,2013-03-27 07:00:00,
2013-03-27 03:06:00,27.7,32.0,28.53,North,357,0.0,0.0,21,0.00,,,-99.99,wx200d/1.3,2013-03-27 07:06:00,
2013-03-27 03:12:00,27.5,32.0,28.53,North,357,0.0,0.0,21,0.00,,,-99.99,wx200d/1.3,2013-03-27 07:12:00,
2013-03-27 03:18:00,27.5,32.0,28.53,North,357,0.0,0.0,21,0.00,,,-99.99,wx200d/1.3,2013-03-27 07:18:00,
2013-03-27 03:24:00,27.3,32.0,28.53,North,357,0.0,0.0,21,0.00,,,-99.99,wx200d/1.3,2013-03-27 07:24:00,
2013-03-27 03:30:00,27.3,32.0,28.53,North,357,0.0,0.0,21,0.00,,,-99.99,wx200d/1.3,2013-03-27 07:30:00,
2013-03-27 03:36:00,27.5,32.0,28.53,North,357,0.0,0.0,21,0.00,,,-99.99,wx200d/1.3,2013-03-27 07:36:00,
2013-03-27 03:42:00,27.7,32.0,28.53,North,357,0.0,0.0,21,0.00,,,-99.99,wx200d/1.3,2013-03-27 07:42:00,
2013-03-27 03:48:00,27.9,32.0,28.53,North,357,0.0,0.0,21,0.00,,,-99.99,wx200d/1.3,2013-03-27 07:48:00,
2013-03-27 03:54:00,27.9,32.0,28.53,NW,305,0.0,0.0,21,0.00,,,-99.99,wx200d/1.3,2013-03-27 07:54:00,
2013-03-27 04:00:00,28.2,32.0,28.53,North,357,0.0,2.7,21,0.00,,,-99.99,wx200d/1.3,2013-03-27 08:00:00,
2013-03-27 04:06:00,28.6,32.0,28.50,NW,318,0.0,2.7,20,0.00,,,-99.99,wx200d/1.3,2013-03-27 08:06:00,
2013-03-27 04:14:00,28.9,32.0,28.50,NNW,328,0.0,0.0,20,0.00,,,-99.99,wx200d/1.3,2013-03-27 08:14:00,
2013-03-27 04:20:00,28.8,32.0,28.53,WSW,257,0.0,0.0,20,0.00,,,-99.99,wx200d/1.3,2013-03-27 08:20:00,
2013-03-27 04:26:00,28.8,32.0,28.53,North,9,0.0,0.0,20,0.00,,,-99.99,wx200d/1.3,2013-03-27 08:26:00,
2013-03-27 04:32:00,28.8,32.0,28.53,SSW,212,0.0,2.7,20,0.00,,,-99.99,wx200d/1.3,2013-03-27 08:32:00,
2013-03-27 04:38:00,28.8,32.0,28.53,WNW,289,0.0,0.0,20,0.00,,,-99.99,wx200d/1.3,2013-03-27 08:38:00,
2013-03-27 04:44:00,28.8,32.0,28.53,West,272,0.0,0.0,20,0.00,,,-99.99,wx200d/1.3,2013-03-27 08:44:00,
2013-03-27 04:50:00,28.9,32.0,28.53,WSW,246,0.0,0.0,20,0.00,,,-99.99,wx200d/1.3,2013-03-27 08:50:00,
2013-03-27 04:56:00,28.8,32.0,28.53,South,188,0.0,0.0,20,0.00,,,-99.99,wx200d/1.3,2013-03-27 08:56:00,
2013-03-27 05:02:00,28.6,32.0,28.53,WSW,254,0.0,0.0,20,0.00,,,-99.99,wx200d/1.3,2013-03-27 09:02:00,
2013-03-27 05:08:00,28.4,32.0,28.53,WNW,291,0.0,0.0,21,0.00,,,-99.99,wx200d/1.3,2013-03-27 09:08:00,
2013-03-27 05:14:00,28.4,32.0,28.53,WNW,298,0.0,0.0,21,0.00,,,-99.99,wx200d/1.3,2013-03-27 09:14:00,
2013-03-27 05:20:00,28.2,32.0,28.53,WNW,288,0.0,0.0,21,0.00,,,-99.99,wx200d/1.3,2013-03-27 09:20:00,
2013-03-27 05:26:00,28.2,32.0,28.53,West,281,0.0,0.0,21,0.00,,,-99.99,wx200d/1.3,2013-03-27 09:26:00,
2013-03-27 05:32:00,28.2,32.0,28.53,WNW,296,0.0,3.1,21,0.00,,,-99.99,wx200d/1.3,2013-03-27 09:32:00,
2013-03-27 05:38:00,28.4,32.0,28.53,West,270,0.0,2.2,21,0.00,,,-99.99,wx200d/1.3,2013-03-27 09:38:00,
2013-03-27 05:44:00,28.6,32.0,28.53,WNW,290,0.0,0.0,20,0.00,,,-99.99,wx200d/1.3,2013-03-27 09:44:00,
2013-03-27 05:50:00,28.6,32.0,28.53,WSW,254,0.0,3.1,20,0.00,,,-99.99,wx200d/1.3,2013-03-27 09:50:00,
2013-03-27 05:56:00,28.6,32.0,28.53,WNW,300,0.0,0.0,20,0.00,,,-99.99,wx200d/1.3,2013-03-27 09:56:00,
2013-03-27 06:02:00,28.6,32.0,28.53,NNW,327,0.0,0.0,20,0.00,,,-99.99,wx200d/1.3,2013-03-27 10:02:00,
2013-03-27 06:08:00,28.4,32.0,28.53,West,281,0.0,0.0,21,0.00,,,-99.99,wx200d/1.3,2013-03-27 10:08:00,
2013-03-27 06:14:00,28.4,32.0,28.53,NNW,330,0.0,0.0,21,0.00,,,-99.99,wx200d/1.3,2013-03-27 10:14:00,
2013-03-27 06:20:00,28.4,32.0,28.56,West,272,0.0,0.0,21,0.00,,,-99.99,wx200d/1.3,2013-03-27 10:20:00,
2013-03-27 06:26:00,28.4,32.0,28.56,NNW,344,2.2,0.0,21,0.00,,,-99.99,wx200d/1.3,2013-03-27 10:26:00,
2013-03-27 06:32:00,28.4,32.0,28.53,North,353,0.0,0.0,21,0.00,,,-99.99,wx200d/1.3,2013-03-27 10:32:00,
2013-03-27 06:38:00,28.4,32.0,28.53,WNW,301,0.0,0.0,21,0.00,,,-99.99,wx200d/1.3,2013-03-27 10:38:00,
2013-03-27 06:44:00,28.4,32.0,28.53,WNW,288,0.0,0.0,21,0.00,,,-99.99,wx200d/1.3,2013-03-27 10:44:00,
2013-03-27 06:50:00,28.4,32.0,28.56,West,281,0.0,0.0,21,0.00,,,-99.99,wx200d/1.3,2013-03-27 10:50:00,
2013-03-27 06:56:00,28.6,32.0,28.56,NW,306,0.0,0.0,20,0.00,,,-99.99,wx200d/1.3,2013-03-27 10:56:00,
2013-03-27 07:02:00,28.4,32.0,28.56,NW,324,0.0,0.0,21,0.00,,,-99.99,wx200d/1.3,2013-03-27 11:02:00,
2013-03-27 07:08:00,28.4,32.0,28.56,NNW,329,0.0,0.0,21,0.00,,,-99.99,wx200d/1.3,2013-03-27 11:08:00,
2013-03-27 07:14:00,28.4,32.0,28.56,NNW,332,0.0,0.0,21,0.00,,,-99.99,wx200d/1.3,2013-03-27 11:14:00,
2013-03-27 07:20:00,28.4,32.0,28.56,NNW,330,0.0,0.0,21,0.00,,,-99.99,wx200d/1.3,2013-03-27 11:20:00,
2013-03-27 07:26:00,28.4,32.0,28.56,NNW,330,0.0,0.0,21,0.00,,,-99.99,wx200d/1.3,2013-03-27 11:26:00,
2013-03-27 07:32:00,28.4,32.0,28.56,NNW,330,0.0,0.0,21,0.00,,,-99.99,wx200d/1.3,2013-03-27 11:32:00,
2013-03-27 07:38:00,28.4,32.0,28.56,WNW,293,0.0,0.0,21,0.00,,,-99.99,wx200d/1.3,2013-03-27 11:38:00,
2013-03-27 07:44:00,28.6,32.0,28.56,WSW,244,0.0,0.0,20,0.00,,,-99.99,wx200d/1.3,2013-03-27 11:44:00,
2013-03-27 07:50:00,28.9,32.0,28.56,WSW,238,0.0,2.2,20,0.00,,,-99.99,wx200d/1.3,2013-03-27 11:50:00,
2013-03-27 07:56:00,29.1,32.0,28.56,SSW,202,0.0,2.2,20,0.00,,,-99.99,wx200d/1.3,2013-03-27 11:56:00,
2013-03-27 08:02:00,29.5,32.0,28.56,West,274,0.0,0.0,20,0.00,,,-99.99,wx200d/1.3,2013-03-27 12:02:00,
2013-03-27 08:08:00,30.0,32.0,28.56,North,9,2.2,0.0,20,0.00,,,-99.99,wx200d/1.3,2013-03-27 12:08:00,
2013-03-27 08:14:00,30.4,32.0,28.56,North,7,0.0,0.0,20,0.00,,,-99.99,wx200d/1.3,2013-03-27 12:14:00,
2013-03-27 08:20:00,30.7,32.0,28.56,NNE,20,0.0,0.0,20,0.00,,,-99.99,wx200d/1.3,2013-03-27 12:20:00,
2013-03-27 08:26:00,31.1,32.0,28.56,East,89,0.0,0.0,20,0.00,,,-99.99,wx200d/1.3,2013-03-27 12:26:00,
2013-03-27 08:32:00,31.6,32.0,28.56,North,11,0.0,0.0,20,0.00,,,-99.99,wx200d/1.3,2013-03-27 12:32:00,
2013-03-27 08:38:00,32.2,32.0,28.56,WSW,242,2.2,2.7,20,0.00,,,-99.99,wx200d/1.3,2013-03-27 12:38:00,
2013-03-27 08:44:00,32.5,32.0,28.56,WSW,258,0.0,2.2,20,0.00,,,-99.99,wx200d/1.3,2013-03-27 12:44:00,
2013-03-27 08:50:00,32.9,32.0,28.56,NW,318,0.0,0.0,20,0.00,,,-99.99,wx200d/1.3,2013-03-27 12:50:00,
2013-03-27 08:56:00,33.4,32.0,28.56,NW,309,0.0,0.0,20,0.00,,,-99.99,wx200d/1.3,2013-03-27 12:56:00,
2013-03-27 09:02:00,34.0,32.0,28.56,WSW,237,0.0,3.6,20,0.00,,,-99.99,wx200d/1.3,2013-03-27 13:02:00,
2013-03-27 09:08:00,34.7,32.0,28.56,North,0,0.0,3.6,20,0.00,,,-99.99,wx200d/1.3,2013-03-27 13:08:00,
2013-03-27 09:14:00,35.1,32.0,28.56,West,271,0.0,0.0,20,0.00,,,-99.99,wx200d/1.3,2013-03-27 13:14:00,
2013-03-27 09:20:00,35.6,32.0,28.56,East,91,0.0,3.1,19,0.00,,,-99.99,wx200d/1.3,2013-03-27 13:20:00,
2013-03-27 09:26:00,36.3,32.0,28.56,NW,314,2.2,3.6,19,0.00,,,-99.99,wx200d/1.3,2013-03-27 13:26:00,
2013-03-27 09:32:00,37.4,32.0,28.56,NW,320,2.7,3.6,19,0.00,,,-99.99,wx200d/1.3,2013-03-27 13:32:00,
2013-03-27 09:38:00,38.5,32.0,28.56,NW,320,0.0,5.8,19,0.00,,,-99.99,wx200d/1.3,2013-03-27 13:38:00,
2013-03-27 09:44:00,39.4,32.0,28.56,SE,132,3.1,3.1,18,0.00,,,-99.99,wx200d/1.3,2013-03-27 13:44:00,
2013-03-27 09:50:00,40.3,32.0,28.56,SE,142,3.1,3.1,18,0.00,,,-99.99,wx200d/1.3,2013-03-27 13:50:00,
2013-03-27 09:56:00,40.8,32.0,28.56,West,264,3.6,3.6,18,0.00,,,-99.99,wx200d/1.3,2013-03-27 13:56:00,
2013-03-27 10:02:00,41.2,32.0,28.56,West,260,2.2,3.6,18,0.00,,,-99.99,wx200d/1.3,2013-03-27 14:02:00,
2013-03-27 10:08:00,41.7,32.0,28.56,NW,312,2.7,2.7,18,0.00,,,-99.99,wx200d/1.3,2013-03-27 14:08:00,
2013-03-27 10:14:00,41.9,32.0,28.56,SE,143,3.6,8.1,18,0.00,,,-99.99,wx200d/1.3,2013-03-27 14:14:00,
2013-03-27 10:20:00,42.4,32.0,28.56,NNE,27,3.6,3.6,18,0.00,,,-99.99,wx200d/1.3,2013-03-27 14:20:00,
2013-03-27 10:26:00,43.0,32.0,28.56,NNW,342,5.4,5.4,18,0.00,,,-99.99,wx200d/1.3,2013-03-27 14:26:00,
2013-03-27 10:32:00,43.3,32.0,28.56,North,0,3.6,4.0,18,0.00,,,-99.99,wx200d/1.3,2013-03-27 14:32:00,
2013-03-27 10:38:00,42.6,32.0,28.56,NNE,16,3.6,3.6,18,0.00,,,-99.99,wx200d/1.3,2013-03-27 14:38:00,
2013-03-27 10:44:00,42.8,32.0,28.56,North,0,4.0,5.4,18,0.00,,,-99.99,wx200d/1.3,2013-03-27 14:44:00,
2013-03-27 10:50:00,43.2,32.0,28.56,South,179,4.5,8.3,18,0.00,,,-99.99,wx200d/1.3,2013-03-27 14:50:00,
2013-03-27 10:56:00,44.1,32.0,28.56,North,353,4.0,5.8,18,0.00,,,-99.99,wx200d/1.3,2013-03-27 14:56:00,
2013-03-27 11:02:00,45.9,32.0,28.56,NE,36,2.2,4.0,17,0.00,,,-99.99,wx200d/1.3,2013-03-27 15:02:00,
2013-03-27 11:08:00,46.6,32.0,28.56,NNE,22,4.9,4.9,17,0.00,,,-99.99,wx200d/1.3,2013-03-27 15:08:00,
2013-03-27 11:14:00,47.3,32.0,28.56,North,2,2.2,8.3,17,0.00,,,-99.99,wx200d/1.3,2013-03-27 15:14:00,
2013-03-27 11:20:00,47.5,32.0,28.56,North,353,4.0,4.0,17,0.00,,,-99.99,wx200d/1.3,2013-03-27 15:20:00,
2013-03-27 11:26:00,48.0,32.0,28.56,ENE,67,3.1,3.6,17,0.00,,,-99.99,wx200d/1.3,2013-03-27 15:26:00,
2013-03-27 11:32:00,48.4,32.0,28.56,South,173,3.6,3.6,16,0.00,,,-99.99,wx200d/1.3,2013-03-27 15:32:00,
2013-03-27 11:38:00,49.1,32.0,28.56,ENE,62,3.1,3.1,16,0.00,,,-99.99,wx200d/1.3,2013-03-27 15:38:00,
2013-03-27 11:44:00,48.9,32.0,28.56,North,357,4.9,4.9,16,0.00,,,-99.99,wx200d/1.3,2013-03-27 15:44:00,
2013-03-27 11:50:00,48.9,32.0,28.56,East,85,4.0,4.0,16,0.00,,,-99.99,wx200d/1.3,2013-03-27 15:50:00,
2013-03-27 11:56:00,49.5,32.0,28.56,North,353,7.2,7.2,16,0.00,,,-99.99,wx200d/1.3,2013-03-27 15:56:00,
2013-03-27 12:02:00,50.5,32.0,28.53,NE,49,2.2,0.0,19,0.00,,,-99.99,wx200d/1.3,2013-03-27 16:02:00,
2013-03-27 12:08:00,50.9,32.0,28.53,NW,310,3.6,4.0,19,0.00,,,-99.99,wx200d/1.3,2013-03-27 16:08:00,
2013-03-27 12:14:00,50.9,32.0,28.53,NNE,14,2.2,4.9,19,0.00,,,-99.99,wx200d/1.3,2013-03-27 16:14:00,
2013-03-27 12:20:00,51.1,32.0,28.53,North,353,2.7,4.0,19,0.00,,,-99.99,wx200d/1.3,2013-03-27 16:20:00,
2013-03-27 12:26:00,51.4,32.0,28.53,North,357,3.6,8.1,19,0.00,,,-99.99,wx200d/1.3,2013-03-27 16:26:00,
2013-03-27 12:32:00,51.6,32.0,28.53,SSW,200,4.0,4.0,19,0.00,,,-99.99,wx200d/1.3,2013-03-27 16:32:00,
2013-03-27 12:38:00,51.3,32.0,28.53,WNW,282,3.6,3.6,19,0.00,,,-99.99,wx200d/1.3,2013-03-27 16:38:00,
2013-03-27 12:44:00,52.0,32.0,28.53,WSW,253,4.9,4.9,18,0.00,,,-99.99,wx200d/1.3,2013-03-27 16:44:00,
2013-03-27 12:50:00,50.4,32.0,28.53,North,353,4.9,4.9,19,0.00,,,-99.99,wx200d/1.3,2013-03-27 16:50:00,
2013-03-27 12:56:00,50.5,32.0,28.53,North,5,5.8,5.8,19,0.00,,,-99.99,wx200d/1.3,2013-03-27 16:56:00,
2013-03-27 13:02:00,50.9,32.0,28.53,North,0,4.0,4.0,19,0.00,,,-99.99,wx200d/1.3,2013-03-27 17:02:00,
2013-03-27 13:08:00,51.1,32.0,28.53,North,9,6.7,7.6,19,0.00,,,-99.99,wx200d/1.3,2013-03-27 17:08:00,
2013-03-27 13:14:00,49.6,32.0,28.53,North,6,4.5,0.0,16,0.00,,,-99.99,wx200d/1.3,2013-03-27 17:14:00,
2013-03-27 13:20:00,48.7,32.0,28.53,NNW,327,2.2,3.6,16,0.00,,,-99.99,wx200d/1.3,2013-03-27 17:20:00,
2013-03-27 13:26:00,50.4,32.0,28.53,NW,318,3.6,3.6,16,0.00,,,-99.99,wx200d/1.3,2013-03-27 17:26:00,
2013-03-27 13:32:00,50.4,32.0,28.53,NNE,24,3.1,4.9,16,0.00,,,-99.99,wx200d/1.3,2013-03-27 17:32:00,
2013-03-27 13:38:00,50.4,32.0,28.53,NW,314,0.0,0.0,16,0.00,,,-99.99,wx200d/1.3,2013-03-27 17:38:00,
2013-03-27 13:44:00,50.4,32.0,28.53,East,82,4.0,0.0,16,0.00,,,-99.99,wx200d/1.3,2013-03-27 17:44:00,
2013-03-27 13:50:00,50.4,32.0,28.53,SSW,207,3.6,3.6,16,0.00,,,-99.99,wx200d/1.3,2013-03-27 17:50:00,
2013-03-27 13:56:00,50.4,32.0,28.53,NNE,26,5.8,5.8,16,0.00,,,-99.99,wx200d/1.3,2013-03-27 17:56:00,
2013-03-27 14:02:00,47.5,32.0,28.53,NNW,329,3.6,3.6,17,0.00,,,-99.99,wx200d/1.3,2013-03-27 18:02:00,
2013-03-27 14:08:00,47.1,32.0,28.50,NNW,344,3.6,4.0,17,0.00,,,-99.99,wx200d/1.3,2013-03-27 18:08:00,
2013-03-27 14:14:00,47.1,32.0,28.50,NNE,32,0.0,0.0,17,0.00,,,-99.99,wx200d/1.3,2013-03-27 18:14:00,
2013-03-27 14:20:00,47.1,32.0,28.53,SW,231,4.5,5.4,17,0.00,,,-99.99,wx200d/1.3,2013-03-27 18:20:00,
2013-03-27 14:26:00,45.1,32.0,28.53,North,353,4.0,4.0,17,0.00,,,-99.99,wx200d/1.3,2013-03-27 18:26:00,
2013-03-27 14:32:00,45.1,32.0,28.53,North,2,4.5,4.9,17,0.00,,,-99.99,wx200d/1.3,2013-03-27 18:32:00,
2013-03-27 14:38:00,45.1,32.0,28.53,ENE,62,2.2,4.5,17,0.00,,,-99.99,wx200d/1.3,2013-03-27 18:38:00,
2013-03-27 14:44:00,45.1,32.0,28.53,SSW,211,2.2,3.6,17,0.00,,,-99.99,wx200d/1.3,2013-03-27 18:44:00,
2013-03-27 14:50:00,44.4,32.0,28.53,West,275,2.7,3.6,18,0.00,,,-99.99,wx200d/1.3,2013-03-27 18:50:00,
2013-03-27 14:56:00,44.4,32.0,28.53,West,260,3.6,3.6,18,0.00,,,-99.99,wx200d/1.3,2013-03-27 18:56:00,
2013-03-27 15:02:00,44.4,32.0,28.53,NNW,338,4.0,6.7,18,0.00,,,-99.99,wx200d/1.3,2013-03-27 19:02:00,
2013-03-27 15:08:00,44.1,32.0,28.53,East,92,0.0,3.6,18,0.00,,,-99.99,wx200d/1.3,2013-03-27 19:08:00,
2013-03-27 15:14:00,43.9,32.0,28.53,North,0,4.0,5.4,18,0.00,,,-99.99,wx200d/1.3,2013-03-27 19:14:00,
2013-03-27 15:20:00,43.9,32.0,28.53,North,357,3.6,3.6,18,0.00,,,-99.99,wx200d/1.3,2013-03-27 19:20:00,
2013-03-27 15:26:00,43.9,32.0,28.53,WNW,291,0.0,6.3,18,0.00,,,-99.99,wx200d/1.3,2013-03-27 19:26:00,
2013-03-27 15:32:00,43.7,32.0,28.53,NW,308,3.6,6.3,18,0.00,,,-99.99,wx200d/1.3,2013-03-27 19:32:00,
2013-03-27 15:38:00,43.7,32.0,28.53,North,353,2.7,2.7,18,0.00,,,-99.99,wx200d/1.3,2013-03-27 19:38:00,
2013-03-27 15:44:00,43.7,32.0,28.53,NNE,21,3.6,4.0,18,0.00,,,-99.99,wx200d/1.3,2013-03-27 19:44:00,
2013-03-27 15:50:00,43.7,32.0,28.53,North,353,4.0,4.0,18,0.00,,,-99.99,wx200d/1.3,2013-03-27 19:50:00,
2013-03-27 15:56:00,43.7,32.0,28.53,NNW,345,2.7,3.6,18,0.00,,,-99.99,wx200d/1.3,2013-03-27 19:56:00,
2013-03-27 16:02:00,43.9,32.0,28.53,NNE,17,2.2,4.0,18,0.00,,,-99.99,wx200d/1.3,2013-03-27 20:02:00,
2013-03-27 16:08:00,43.7,32.0,28.53,NNW,345,2.7,7.2,18,0.00,,,-99.99,wx200d/1.3,2013-03-27 20:08:00,
2013-03-27 16:14:00,43.5,32.0,28.53,West,270,5.4,5.8,18,0.00,,,-99.99,wx200d/1.3,2013-03-27 20:14:00,
2013-03-27 16:20:00,43.2,32.0,28.53,NE,55,2.7,3.1,18,0.00,,,-99.99,wx200d/1.3,2013-03-27 20:20:00,
2013-03-27 16:26:00,43.2,32.0,28.53,NE,40,4.0,4.0,18,0.00,,,-99.99,wx200d/1.3,2013-03-27 20:26:00,
2013-03-27 16:32:00,43.5,32.0,28.53,ENE,58,3.1,3.1,18,0.00,,,-99.99,wx200d/1.3,2013-03-27 20:32:00,
2013-03-27 16:38:00,43.9,32.0,28.53,West,280,2.7,3.6,18,0.00,,,-99.99,wx200d/1.3,2013-03-27 20:38:00,
2013-03-27 16:44:00,44.1,32.0,28.53,NW,322,3.6,4.9,18,0.00,,,-99.99,wx200d/1.3,2013-03-27 20:44:00,
2013-03-27 16:50:00,44.1,32.0,28.56,ESE,120,2.7,5.8,18,0.00,,,-99.99,wx200d/1.3,2013-03-27 20:50:00,
2013-03-27 16:56:00,43.9,32.0,28.56,ESE,123,2.7,4.0,18,0.00,,,-99.99,wx200d/1.3,2013-03-27 20:56:00,
2013-03-27 17:02:00,44.1,32.0,28.56,SSW,192,3.1,3.6,18,0.00,,,-99.99,wx200d/1.3,2013-03-27 21:02:00,
2013-03-27 17:08:00,43.9,32.0,28.56,NNW,341,2.7,2.7,18,0.00,,,-99.99,wx200d/1.3,2013-03-27 21:08:00,
2013-03-27 17:14:00,43.7,32.0,28.56,NNW,329,2.2,0.0,18,0.00,,,-99.99,wx200d/1.3,2013-03-27 21:14:00,
2013-03-27 17:20:00,43.3,32.0,28.56,NW,308,3.6,5.4,18,0.00,,,-99.99,wx200d/1.3,2013-03-27 21:20:00,
2013-03-27 17:26:00,43.0,32.0,28.56,NE,54,3.1,3.1,18,0.00,,,-99.99,wx200d/1.3,2013-03-27 21:26:00,
2013-03-27 17:32:00,42.8,32.0,28.56,NE,36,6.3,6.3,18,0.00,,,-99.99,wx200d/1.3,2013-03-27 21:32:00,
2013-03-27 17:38:00,42.6,32.0,28.56,WNW,291,2.2,3.6,18,0.00,,,-99.99,wx200d/1.3,2013-03-27 21:38:00,
2013-03-27 17:44:00,42.8,32.0,28.56,WNW,300,0.0,4.0,18,0.00,,,-99.99,wx200d/1.3,2013-03-27 21:44:00,
2013-03-27 17:50:00,43.0,32.0,28.56,NNE,30,2.7,0.0,18,0.00,,,-99.99,wx200d/1.3,2013-03-27 21:50:00,
2013-03-27 17:56:00,43.3,32.0,28.56,North,3,3.6,0.0,18,0.00,,,-99.99,wx200d/1.3,2013-03-27 21:56:00,
2013-03-27 18:02:00,43.3,32.0,28.56,North,2,2.7,2.7,18,0.00,,,-99.99,wx200d/1.3,2013-03-27 22:02:00,
2013-03-27 18:08:00,43.3,32.0,28.56,ESE,114,2.2,0.0,18,0.00,,,-99.99,wx200d/1.3,2013-03-27 22:08:00,
2013-03-27 18:14:00,43.3,32.0,28.56,South,169,0.0,2.7,18,0.00,,,-99.99,wx200d/1.3,2013-03-27 22:14:00,
2013-03-27 18:20:00,43.0,32.0,28.56,SSW,201,0.0,2.7,18,0.00,,,-99.99,wx200d/1.3,2013-03-27 22:20:00,
2013-03-27 18:26:00,42.6,32.0,28.56,NNE,24,0.0,0.0,18,0.00,,,-99.99,wx200d/1.3,2013-03-27 22:26:00,
2013-03-27 18:32:00,42.3,32.0,28.56,NNW,333,2.2,0.0,18,0.00,,,-99.99,wx200d/1.3,2013-03-27 22:32:00,
2013-03-27 18:38:00,41.7,32.0,28.56,SW,227,2.2,2.7,18,0.00,,,-99.99,wx200d/1.3,2013-03-27 22:38:00,
2013-03-27 18:44:00,41.4,32.0,28.56,NNW,342,0.0,0.0,18,0.00,,,-99.99,wx200d/1.3,2013-03-27 22:44:00,
2013-03-27 18:50:00,41.0,32.0,28.59,WNW,298,3.1,0.0,18,0.00,,,-99.99,wx200d/1.3,2013-03-27 22:50:00,
2013-03-27 18:56:00,40.8,32.0,28.59,North,353,2.2,3.6,18,0.00,,,-99.99,wx200d/1.3,2013-03-27 22:56:00,
2013-03-27 19:02:00,40.5,32.0,28.59,North,353,0.0,2.2,18,0.00,,,-99.99,wx200d/1.3,2013-03-27 23:02:00,
2013-03-27 19:08:00,40.3,32.0,28.59,SE,145,0.0,3.1,18,0.00,,,-99.99,wx200d/1.3,2013-03-27 23:08:00,
2013-03-27 19:14:00,39.9,32.0,28.59,West,277,0.0,2.2,18,0.00,,,-99.99,wx200d/1.3,2013-03-27 23:14:00,
2013-03-27 19:20:00,39.7,32.0,28.59,North,5,0.0,2.7,18,0.00,,,-99.99,wx200d/1.3,2013-03-27 23:20:00,
2013-03-27 19:26:00,39.4,32.0,28.59,NE,35,2.2,0.0,18,0.00,,,-99.99,wx200d/1.3,2013-03-27 23:26:00,
2013-03-27 19:32:00,39.2,32.0,28.59,NNW,348,0.0,0.0,18,0.00,,,-99.99,wx200d/1.3,2013-03-27 23:32:00,
2013-03-27 19:38:00,39.2,32.0,28.59,NNW,341,0.0,0.0,18,0.00,,,-99.99,wx200d/1.3,2013-03-27 23:38:00,
2013-03-27 19:44:00,39.0,32.0,28.59,NNW,345,0.0,0.0,19,0.00,,,-99.99,wx200d/1.3,2013-03-27 23:44:00,
2013-03-27 19:50:00,38.8,32.0,28.61,NNW,331,0.0,0.0,19,0.00,,,-99.99,wx200d/1.3,2013-03-27 23:50:00,
2013-03-27 19:56:00,38.7,32.0,28.61,WNW,290,0.0,0.0,19,0.00,,,-99.99,wx200d/1.3,2013-03-27 23:56:00,
2013-03-27 20:02:00,38.5,32.0,28.61,NNW,343,0.0,0.0,19,0.00,,,-99.99,wx200d/1.3,2013-03-28 00:02:00,
2013-03-27 20:08:00,38.3,32.0,28.61,NNW,334,0.0,0.0,19,0.00,,,-99.99,wx200d/1.3,2013-03-28 00:08:00,
2013-03-27 20:14:00,38.3,32.0,28.61,West,280,0.0,0.0,19,0.00,,,-99.99,wx200d/1.3,2013-03-28 00:14:00,
2013-03-27 20:20:00,38.3,32.0,28.61,NW,313,0.0,0.0,19,0.00,,,-99.99,wx200d/1.3,2013-03-28 00:20:00,
2013-03-27 20:26:00,38.3,32.0,28.61,NNE,12,0.0,2.2,19,0.00,,,-99.99,wx200d/1.3,2013-03-28 00:26:00,
2013-03-27 20:32:00,38.3,32.0,28.61,NW,306,0.0,0.0,19,0.00,,,-99.99,wx200d/1.3,2013-03-28 00:32:00,
2013-03-27 20:38:00,37.9,32.0,28.61,NW,305,0.0,0.0,19,0.00,,,-99.99,wx200d/1.3,2013-03-28 00:38:00,
2013-03-27 20:44:00,37.6,32.0,28.61,NW,320,0.0,0.0,19,0.00,,,-99.99,wx200d/1.3,2013-03-28 00:44:00,
2013-03-27 20:50:00,37.2,32.0,28.61,WNW,288,2.7,0.0,19,0.00,,,-99.99,wx200d/1.3,2013-03-28 00:50:00,
2013-03-27 20:56:00,37.4,32.0,28.61,North,357,0.0,2.7,19,0.00,,,-99.99,wx200d/1.3,2013-03-28 00:56:00,
2013-03-27 21:02:00,37.6,32.0,28.61,North,353,0.0,0.0,19,0.00,,,-99.99,wx200d/1.3,2013-03-28 01:02:00,
2013-03-27 21:08:00,37.6,32.0,28.61,NNW,335,2.7,2.7,19,0.00,,,-99.99,wx200d/1.3,2013-03-28 01:08:00,
2013-03-27 21:14:00,37.6,32.0,28.61,NNW,336,0.0,0.0,19,0.00,,,-99.99,wx200d/1.3,2013-03-28 01:14:00,
2013-03-27 21:20:00,37.6,32.0,28.61,NNW,343,0.0,0.0,19,0.00,,,-99.99,wx200d/1.3,2013-03-28 01:20:00,
2013-03-27 21:26:00,37.4,32.0,28.61,NNW,345,0.0,2.7,19,0.00,,,-99.99,wx200d/1.3,2013-03-28 01:26:00,
2013-03-27 21:32:00,37.0,32.0,28.64,NNW,345,0.0,0.0,19,0.00,,,-99.99,wx200d/1.3,2013-03-28 01:32:00,
2013-03-27 21:38:00,36.7,32.0,28.64,NNW,348,0.0,0.0,19,0.00,,,-99.99,wx200d/1.3,2013-03-28 01:38:00,
2013-03-27 21:44:00,36.3,32.0,28.64,NNW,348,0.0,0.0,19,0.00,,,-99.99,wx200d/1.3,2013-03-28 01:44:00,
2013-03-27 21:50:00,36.1,32.0,28.64,North,353,0.0,2.7,19,0.00,,,-99.99,wx200d/1.3,2013-03-28 01:50:00,
2013-03-27 21:56:00,36.5,32.0,28.64,NNW,336,0.0,2.7,19,0.00,,,-99.99,wx200d/1.3,2013-03-28 01:56:00,
2013-03-27 22:02:00,36.7,32.0,28.64,NNW,333,0.0,0.0,19,0.00,,,-99.99,wx200d/1.3,2013-03-28 02:02:00,
2013-03-27 22:08:00,36.5,32.0,28.64,North,353,0.0,0.0,19,0.00,,,-99.99,wx200d/1.3,2013-03-28 02:08:00,
2013-03-27 22:14:00,36.5,32.0,28.64,NW,319,0.0,2.7,19,0.00,,,-99.99,wx200d/1.3,2013-03-28 02:14:00,
2013-03-27 22:20:00,36.3,32.0,28.64,North,7,0.0,2.2,19,0.00,,,-99.99,wx200d/1.3,2013-03-28 02:20:00,
2013-03-27 22:26:00,36.3,32.0,28.64,NNE,12,0.0,2.2,19,0.00,,,-99.99,wx200d/1.3,2013-03-28 02:26:00,
2013-03-27 22:32:00,36.3,32.0,28.64,NNE,25,2.7,0.0,19,0.00,,,-99.99,wx200d/1.3,2013-03-28 02:32:00,
2013-03-27 22:38:00,36.3,32.0,28.64,NNE,14,2.7,4.5,19,0.00,,,-99.99,wx200d/1.3,2013-03-28 02:38:00,
2013-03-27 22:44:00,36.3,32.0,28.64,ENE,77,3.6,3.6,19,0.00,,,-99.99,wx200d/1.3,2013-03-28 02:44:00,
2013-03-27 22:50:00,36.3,32.0,28.64,NNW,343,2.2,3.1,19,0.00,,,-99.99,wx200d/1.3,2013-03-28 02:50:00,
2013-03-27 22:56:00,36.3,32.0,28.64,North,0,3.1,4.0,19,0.00,,,-99.99,wx200d/1.3,2013-03-28 02:56:00,
2013-03-27 23:02:00,36.3,32.0,28.64,NNW,340,0.0,3.1,19,0.00,,,-99.99,wx200d/1.3,2013-03-28 03:02:00,
2013-03-27 23:08:00,36.1,32.0,28.64,North,353,0.0,4.0,19,0.00,,,-99.99,wx200d/1.3,2013-03-28 03:08:00,
2013-03-27 23:14:00,36.0,32.0,28.64,NNW,331,0.0,0.0,19,0.00,,,-99.99,wx200d/1.3,2013-03-28 03:14:00,
2013-03-27 23:20:00,35.8,32.0,28.64,North,357,2.2,2.7,19,0.00,,,-99.99,wx200d/1.3,2013-03-28 03:20:00,
2013-03-27 23:26:00,35.6,32.0,28.64,NW,317,0.0,0.0,19,0.00,,,-99.99,wx200d/1.3,2013-03-28 03:26:00,
2013-03-27 23:32:00,35.4,32.0,28.64,NNW,343,0.0,0.0,20,0.00,,,-99.99,wx200d/1.3,2013-03-28 03:32:00,
2013-03-27 23:38:00,35.4,32.0,28.64,North,0,0.0,3.6,20,0.00,,,-99.99,wx200d/1.3,2013-03-28 03:38:00,
2013-03-27 23:44:00,35.4,32.0,28.64,NW,304,3.1,3.6,20,0.00,,,-99.99,wx200d/1.3,2013-03-28 03:44:00,
2013-03-27 23:50:00,35.4,32.0,28.64,NE,38,2.2,0.0,20,0.00,,,-99.99,wx200d/1.3,2013-03-28 03:50:00,
2013-03-27 23:56:00,35.4,32.0,28.64,North,357,0.0,0.0,20,0.00,,,-99.99,wx200d/1.3,2013-03-28 03:56:00,